Te Rauamoa, New Zealand

12:09 PM NZDT on October 23, 2017 (GMT +1300)
Te Rauamoa

Weather History for 93119 - March, 2013

Change the Weather History Date:

Friday, March 29, 2013

  Actual Average Record
Temperature  
Mean Temperature 65 °F -  
Max Temperature 73 °F 66 °F - ()
Min Temperature 57 °F 53 °F - ()
Growing Degree Days 15 (Base 50)    
Moisture  
Dew Point 56 °F    
Average Humidity 73    
Maximum Humidity 100    
Minimum Humidity 47    
Precipitation  
Precipitation 0.00 in 0.12 in - ()
Sea Level Pressure  
Sea Level Pressure 30.14 in    
Wind  
Wind Speed 5 mph ()    
Max Wind Speed 14 mph    
Max Gust Speed -    
Visibility 6.2 miles    
Events      
T = Trace of Precipitation, MM = Missing Value Source: Averaged Metar Reports

Daily Weather History Graph

Daily Weather History Graph

Search for Another Location

Airport or City:

Trip Planner

Search our weather history database for the weather conditions in past years. The results will help you decide how hot, cold, wet, or windy it might be!

Date:

Astronomy

Mar. 29, 2013 Rise Set
Actual Time 7:31 AM NZDT 7:19 PM NZDT
Civil Twilight 7:05 AM NZDT 7:45 PM NZDT
Nautical Twilight 6:35 AM NZDT 8:15 PM NZDT
Astronomical Twilight 6:05 AM NZDT 8:45 PM NZDT
Moon 8:15 PM NZDT (3/29) 9:10 AM NZDT (3/29)
Length of Visible Light 12h 39m
Length of Day
11h 47m
Full, 97% of the Moon is Illuminated
Mar 29
Full
Apr 3
Last Quarter
Apr 10
New
Apr 19
First Quarter
Apr 26
Full

Hourly Weather History & Observations

Time (NZDT) Temp. Dew Point Humidity Pressure Visibility Wind Dir Wind Speed Gust Speed Precip Events Conditions
12:00 AM 62.6 °F 59.0 °F 88% 30.27 in 6.2 mi East 2.3 mph - N/A   Partly Cloudy
1:00 AM 62.6 °F 59.0 °F 88% 30.24 in 6.2 mi NE 5.8 mph - N/A   Scattered Clouds
2:00 AM 62.6 °F 59.0 °F 88% 30.24 in 6.2 mi NE 4.6 mph - N/A   Scattered Clouds
3:00 AM 60.8 °F 57.2 °F 88% 30.24 in 6.2 mi NNE 1.2 mph - N/A   Scattered Clouds
4:00 AM 60.8 °F 57.2 °F 88% 30.21 in 6.2 mi NNE 2.3 mph - N/A   Partly Cloudy
5:00 AM 60.8 °F 57.2 °F 88% 30.21 in 6.2 mi East 1.2 mph - N/A   Scattered Clouds
6:00 AM 60.8 °F 57.2 °F 88% 30.18 in 6.2 mi SE 3.5 mph - N/A   Scattered Clouds
7:00 AM 57.2 °F 55.4 °F 94% 30.18 in 6.2 mi East 2.3 mph - N/A   Partly Cloudy
8:00 AM 57.2 °F 57.2 °F 100% 30.18 in 6.2 mi SE 3.5 mph - N/A   Partly Cloudy
9:00 AM 59.0 °F 59.0 °F 100% 30.18 in 6.2 mi SE 3.5 mph - N/A   Partly Cloudy
10:00 AM 66.2 °F 59.0 °F 78% 30.18 in 6.2 mi SE 2.3 mph - N/A   Partly Cloudy
11:00 AM 73.4 °F 53.6 °F 50% 30.18 in 6.2 mi NE 5.8 mph - N/A   Scattered Clouds
12:00 PM 69.8 °F 55.4 °F 60% 30.15 in 6.2 mi NNE 10.4 mph - N/A   Scattered Clouds
1:00 PM 71.6 °F 51.8 °F 50% 30.12 in 6.2 mi NE 13.8 mph - N/A   Partly Cloudy
2:00 PM 71.6 °F 53.6 °F 53% 30.09 in 6.2 mi NE 11.5 mph - N/A   Partly Cloudy
3:00 PM 73.4 °F 53.6 °F 50% 30.09 in 6.2 mi NE 11.5 mph - N/A   Mostly Cloudy
4:00 PM 73.4 °F 51.8 °F 47% 30.09 in 6.2 mi NNE 10.4 mph - N/A   Mostly Cloudy
5:00 PM 73.4 °F 51.8 °F 47% 30.06 in 6.2 mi North 8.1 mph - N/A   Mostly Cloudy
6:00 PM 71.6 °F 53.6 °F 53% 30.06 in 6.2 mi North 10.4 mph - N/A   Partly Cloudy
7:00 PM 68.0 °F 55.4 °F 64% 30.06 in 6.2 mi NNE 9.2 mph - N/A   Partly Cloudy
8:00 PM 68.0 °F 55.4 °F 64% 30.06 in 6.2 mi North 9.2 mph - N/A   Partly Cloudy
9:00 PM 68.0 °F 57.2 °F 68% 30.06 in 6.2 mi NNE 6.9 mph - N/A   Partly Cloudy
10:00 PM 64.4 °F 57.2 °F 77% 30.04 in 6.2 mi NNE 6.9 mph - N/A   Partly Cloudy
11:00 PM 66.2 °F 57.2 °F 73% 30.06 in 6.2 mi North 10.4 mph - N/A   Partly Cloudy